[[{"header":{"parameterUnit":"m.s-1","parameterCategory":1,"la1":30.2991,"la2":30.254,"lo1":-89.0895,"lo2":-89.0444,"dy":0.0017,"dx":0.0017,"nx":28,"ny":28,"refTime":"2025-07-18T21:00:00:Z","depth":0,"parameterNumber":2,"parameterNumberName":"U-component_of_WINDS"},"data":[0,0,0,0,0,0,0,0,0,0,0,0,0,0,0,0,0,0,0,0,0,0,0,0,0,0,0,0,0,0,0,0,0,0,0,0,0,0,0,0,0,0,0,0,0,0,0,0,0,0,0,0,0,0,0,0,0,0,1.8004,1.8004,0,1.8004,1.8004,1.8004,1.7928,1.7926,1.7924,1.7922,1.793,1.7932,1.7934,0,0,0,0,0,0,0,0,0,0,0,0,0,1.7945,1.7946,1.8004,1.8004,1.8004,1.8004,1.8004,1.8004,1.7928,1.7926,1.7923,1.7921,1.7929,1.7932,1.7934,0,0,0,0,0,0,0,0,0,0,0,0,0,1.7961,1.7947,1.8004,1.7966,1.7963,1.8004,1.8004,1.8004,1.7929,1.7926,1.7923,1.792,1.7928,1.7931,1.7935,1.8015,0,0,1.7944,1.7946,0,0,0,0,0,0,0,0,1.796,1.7963,1.7972,1.7969,1.7965,1.7963,1.7986,1.8008,1.7929,1.7942,1.7922,1.7918,1.7944,1.7945,1.7952,1.8015,1.8016,1.7944,1.7946,1.7948,1.7949,0,0,0,0,0,0,0,1.7959,1.7962,1.8004,1.7972,1.7968,1.7951,1.795,1.799,1.796,1.794,1.7935,1.7935,1.7941,1.795,1.7952,1.8016,1.7944,1.7947,1.7949,1.795,1.8143,1.8146,0,0,0,0,0,0,1.7962,1.7962,1.8004,1.8004,1.7954,1.7955,1.7953,1.7967,1.7959,1.7955,1.7938,1.7932,1.7946,1.7948,1.7952,1.8044,1.7948,1.7951,1.7952,1.814,1.8144,1.8147,0,0,0,0,0,0,1.7961,1.7966,1.8004,1.7982,1.7985,1.7959,1.7974,1.7968,1.7976,1.7957,1.7953,1.7951,1.7943,1.7948,1.7999,1.8044,1.7952,1.7955,1.8136,1.8141,1.8146,1.823,0,0,0,0,0,0,1.796,1.7966,1.7995,1.7983,1.7987,1.805,1.7977,1.797,1.7981,1.7973,1.7969,1.7965,1.7941,1.7995,1.8002,1.8046,1.7957,1.8132,1.8138,1.8144,1.8224,1.8238,1.825,0,0,0,0,0,1.7958,1.8021,1.7997,1.8003,1.8022,1.8052,1.8055,1.8023,1.7985,1.8014,1.8002,1.7965,1.8037,1.8,1.8008,1.8054,1.8129,1.8137,1.8144,1.8218,1.8235,1.8249,0,0,0,0,0,0,1.8043,1.8019,1.7992,1.8053,1.8055,1.8039,1.8076,1.8043,1.8058,1.805,1.8013,1.8013,1.807,1.8068,1.8027,1.8131,1.8077,1.8086,1.813,1.8146,1.8159,1.8159,1.796,0,0,0,0,0,1.8069,1.8093,1.8072,1.8128,1.813,1.8103,1.8115,1.809,1.8092,1.8093,1.8085,1.809,1.8113,1.813,1.8151,1.8223,1.8221,1.8258,1.8271,1.8282,1.829,1.8327,1.8344,1.8171,1.8171,1.8171,0,0,1.8123,1.8112,1.8131,1.8145,1.8143,1.8171,1.8104,1.8137,1.8157,1.8099,1.8145,1.814,1.8143,1.8205,1.8232,1.8204,1.8337,1.8291,1.83,1.8303,1.8337,1.8353,1.8367,1.8176,1.8175,1.8175,0,0,1.8234,1.8229,1.8274,1.8273,1.8271,1.8252,1.8263,1.8252,1.8244,1.829,1.8246,1.8272,1.8314,1.8317,1.8324,1.8436,1.8402,1.8444,1.8512,1.8549,1.8562,1.8574,1.8613,1.8628,1.8452,1.8453,1.8453,0,1.8302,1.834,1.8303,1.8337,1.8344,1.829,1.8336,1.8338,1.8344,1.8351,1.8319,1.8369,1.8367,1.8428,1.8455,1.8463,1.8475,1.8444,1.8563,1.8574,1.8585,1.8622,1.8637,1.8458,1.8457,1.8456,1.8456,0,1.8423,1.845,1.8487,1.849,1.8502,1.8543,1.8513,1.853,1.8504,1.8489,1.8537,1.8533,1.8551,1.8564,1.8541,1.8621,1.8604,1.8569,1.8513,1.8607,1.8641,1.8655,1.8465,1.8463,1.8461,1.846,0,0,1.859,1.8569,1.8584,1.8584,1.8576,1.8597,1.8636,1.865,1.8665,1.8672,1.8703,1.8738,1.8704,1.8713,1.869,1.8722,1.8809,1.8682,1.8681,1.8705,1.8897,1.8924,1.8941,1.8787,1.8789,1.8791,1.8897,0,1.8697,1.8758,1.8725,1.8792,1.8816,1.8764,1.8797,1.8797,1.8784,1.8805,1.8792,1.8817,1.877,1.8775,1.8804,1.8792,1.8847,1.8784,1.8817,1.8819,1.8817,1.8959,1.8987,1.9087,1.891,1.8912,1.8914,0,1.883,1.8838,1.8906,1.8892,1.8901,1.8931,1.8941,1.8961,1.8961,1.8949,1.8957,1.8926,1.8964,1.8909,1.8962,1.892,1.8931,1.8928,1.8931,1.8933,1.8872,1.8964,1.9118,1.9133,1.8935,1.8933,1.8931,0,1.8943,1.8971,1.9015,1.9017,1.9002,1.9024,1.902,1.9016,1.9026,1.9036,1.9043,1.9059,1.9067,1.9081,1.9055,1.9018,1.9111,1.9055,1.9104,1.9104,1.9126,1.9125,1.9283,1.9134,1.9134,1.9134,1.9134,0,1.9066,1.911,1.9065,1.9092,1.914,1.9102,1.9151,1.9141,1.9138,1.9163,1.912,1.9146,1.911,1.9133,1.9113,1.9159,1.9164,1.9157,1.9151,1.916,1.9161,1.9167,1.916,1.9138,1.9137,1.9136,1.9135,0,1.92,1.9172,1.9216,1.9198,1.9194,1.923,1.9215,1.924,1.9224,1.9256,1.9262,1.9237,1.9261,1.9236,1.926,1.9247,1.9309,1.9293,1.9308,1.9303,1.9354,1.9349,1.9521,1.9542,1.938,1.9382,1.9383,0,1.928,1.9312,1.9296,1.9308,1.9305,1.9326,1.9336,1.93,1.9313,1.9313,1.9339,1.9358,1.9372,1.9413,1.9398,1.9416,1.94,1.946,1.9403,1.9411,1.9401,1.9399,1.9402,1.9471,1.9473,1.9475,1.9476,0,1.9425,1.9408,1.9422,1.9431,1.9443,1.945,1.9453,1.9466,1.9429,1.9445,1.9467,1.9478,1.95,1.952,1.9533,1.9531,1.9498,1.9494,1.9506,1.9516,1.9522,1.9519,1.9339,1.949,1.9489,1.9488,1.9487,1.9486,1.9533,1.9559,1.955,1.9567,1.9565,1.9569,1.9591,1.9576,1.9593,1.9606,1.9585,1.9612,1.9611,1.9624,1.9625,1.9648,1.9623,1.9641,1.9645,1.965,1.9657,1.9519,1.965,1.965,1.9649,1.9649,1.9649,0,1.9675,1.9666,1.9682,1.9686,1.97,1.9664,1.9666,1.968,1.9704,1.9704,1.9717,1.9743,1.9762,1.9748,1.9765,1.9786,1.9771,1.9791,1.9789,1.9789,1.9679,1.9666,1.9803,1.9803,1.9803,1.9803,1.9802,1.9802,1.975,1.979,1.9773,1.9812,1.9804,1.9828,1.9832,1.9836,1.9835,1.9864,1.9879,1.9869,1.9863,1.9879,1.9895,1.9891,1.9899,1.9924,1.9915,1.9812,1.9797,1.9783,1.977,1.9927,1.9927,2.0023,2.0024,2.0025]},{"header":{"parameterUnit":"m.s-1","parameterCategory":1,"la1":30.2991,"la2":30.254,"lo1":-89.0895,"lo2":-89.0444,"dy":0.0017,"dx":0.0017,"nx":28,"ny":28,"refTime":"2025-07-18T21:00:00:Z","depth":0,"parameterNumber":3,"parameterNumberName":"V-component_of_WINDS"},"data":[0,0,0,0,0,0,0,0,0,0,0,0,0,0,0,0,0,0,0,0,0,0,0,0,0,0,0,0,0,0,0,0,0,0,0,0,0,0,0,0,0,0,0,0,0,0,0,0,0,0,0,0,0,0,0,0,0,0,7.4477,7.4478,0,7.4588,7.459,7.4591,7.4577,7.4575,7.4573,7.4572,7.4676,7.4681,7.4685,0,0,0,0,0,0,0,0,0,0,0,0,0,7.424,7.4245,7.4477,7.4478,7.448,7.4588,7.459,7.4591,7.4577,7.4575,7.4573,7.4571,7.4675,7.468,7.4685,0,0,0,0,0,0,0,0,0,0,0,0,0,7.4346,7.4246,7.4477,7.4486,7.4488,7.4588,7.459,7.4592,7.4578,7.4575,7.4572,7.457,7.4673,7.468,7.4686,7.4781,0,0,7.4707,7.4709,0,0,0,0,0,0,0,0,7.434,7.4355,7.4483,7.4486,7.4488,7.4566,7.4545,7.4655,7.4578,7.4543,7.4572,7.4569,7.4641,7.465,7.4677,7.4786,7.479,7.4707,7.4711,7.4714,7.4716,0,0,0,0,0,0,0,7.4333,7.435,7.4521,7.4485,7.4488,7.4481,7.4493,7.4565,7.4605,7.4546,7.4546,7.4559,7.4642,7.467,7.4679,7.4792,7.4707,7.4713,7.4717,7.472,7.4978,7.4981,0,0,0,0,0,0,7.4325,7.4344,7.4517,7.4524,7.4406,7.4487,7.4501,7.4544,7.4605,7.4612,7.4562,7.4558,7.466,7.4671,7.4683,7.4794,7.4714,7.472,7.4724,7.4976,7.4979,7.4982,0,0,0,0,0,0,7.432,7.434,7.4513,7.4434,7.4455,7.4494,7.4542,7.4547,7.4576,7.4617,7.4623,7.4584,7.4659,7.4673,7.4756,7.4798,7.4723,7.4729,7.4972,7.4977,7.4981,7.502,0,0,0,0,0,0,7.4313,7.4339,7.4378,7.4435,7.446,7.4588,7.4545,7.4551,7.4589,7.4585,7.4639,7.4646,7.4658,7.4746,7.4763,7.4806,7.4734,7.4969,7.4974,7.4979,7.5015,7.5025,7.5034,0,0,0,0,0,7.4305,7.4384,7.438,7.4401,7.451,7.459,7.4604,7.4619,7.4592,7.463,7.4655,7.4644,7.4791,7.4755,7.4773,7.4819,7.4966,7.4973,7.4979,7.5011,7.5023,7.5034,0,0,0,0,0,0,7.4328,7.4391,7.4388,7.4489,7.4535,7.4588,7.4636,7.4632,7.4684,7.4679,7.4692,7.4704,7.4787,7.4811,7.477,7.4911,7.4874,7.4885,7.4892,7.4904,7.4913,7.4905,7.474,0,0,0,0,0,7.4345,7.4409,7.4459,7.4543,7.4566,7.4597,7.4633,7.464,7.4687,7.4705,7.4737,7.478,7.4835,7.4871,7.4925,7.5019,7.5028,7.5059,7.5068,7.5076,7.5084,7.5131,7.5144,7.5004,7.5003,7.5003,0,0,7.438,7.4423,7.4462,7.4548,7.4585,7.4645,7.4613,7.468,7.4724,7.4714,7.4794,7.4819,7.4867,7.4955,7.4995,7.4978,7.5125,7.5084,7.509,7.5094,7.5139,7.5152,7.5164,7.5008,7.5007,7.5006,0,0,7.4476,7.4516,7.4589,7.4626,7.4682,7.4702,7.4719,7.4773,7.4789,7.4871,7.4863,7.4914,7.5011,7.5044,7.5074,7.5179,7.5169,7.5196,7.5243,7.5289,7.53,7.531,7.5344,7.5356,7.5204,7.5204,7.5204,0,7.4511,7.4607,7.4625,7.4693,7.4729,7.4725,7.4795,7.483,7.4899,7.4922,7.4902,7.5021,7.5054,7.5148,7.5173,7.5199,7.5215,7.5189,7.5298,7.5308,7.5317,7.5349,7.5362,7.5207,7.5207,7.5206,7.5206,0,7.4646,7.4712,7.4763,7.4833,7.4875,7.4943,7.4967,7.5007,7.501,7.5031,7.5111,7.515,7.5209,7.5232,7.5236,7.5325,7.5312,7.5296,7.5258,7.5333,7.5363,7.5376,7.5211,7.521,7.5209,7.5208,0,0,7.4759,7.4837,7.4855,7.4885,7.4946,7.4995,7.5061,7.5122,7.5154,7.5201,7.5254,7.5335,7.5318,7.5352,7.5359,7.5399,7.5475,7.5377,7.5378,7.5391,7.5571,7.5582,7.5596,7.547,7.5472,7.5474,7.5566,0,7.4858,7.4979,7.4996,7.5101,7.5159,7.5155,7.5212,7.5252,7.5273,7.5322,7.5343,7.5399,7.5375,7.5395,7.5435,7.5458,7.5511,7.5451,7.5515,7.5517,7.55,7.5613,7.5625,7.571,7.5578,7.5581,7.5582,0,7.499,7.5042,7.5154,7.5203,7.5228,7.528,7.5335,7.5384,7.5428,7.5439,7.5476,7.5477,7.5541,7.5502,7.5588,7.5547,7.5573,7.5588,7.5591,7.5596,7.5552,7.5617,7.5738,7.5749,7.5602,7.56,7.5599,0,7.5057,7.5155,7.5234,7.526,7.5321,7.5356,7.5382,7.5424,7.5459,7.5506,7.5527,7.558,7.5608,7.5648,7.5661,7.5633,7.5744,7.5708,7.5752,7.5751,7.5774,7.5772,7.5898,7.5796,7.5796,7.5796,7.5795,0,7.5163,7.5231,7.5264,7.5312,7.5386,7.5403,7.5474,7.5498,7.5535,7.5584,7.5583,7.5629,7.5646,7.5692,7.5703,7.577,7.5783,7.5791,7.5793,7.579,7.5788,7.5806,7.5799,7.5799,7.5798,7.5797,7.5797,0,7.525,7.5276,7.5361,7.5411,7.5425,7.5477,7.5518,7.5562,7.5581,7.5643,7.5658,7.5688,7.5743,7.5761,7.5827,7.5834,7.591,7.5908,7.5896,7.5896,7.5937,7.5932,7.6076,7.6094,7.5983,7.5984,7.5985,0,7.5316,7.5367,7.5423,7.5458,7.5486,7.5541,7.5576,7.5593,7.5629,7.5682,7.5718,7.5774,7.5819,7.5906,7.593,7.598,7.5977,7.6024,7.5984,7.5978,7.5973,7.5969,7.5972,7.603,7.6032,7.6033,7.6033,0,7.5427,7.5437,7.549,7.5546,7.5588,7.5633,7.5675,7.5702,7.5725,7.5764,7.5822,7.5857,7.5924,7.5977,7.6028,7.605,7.6044,7.6046,7.6058,7.6054,7.6044,7.6047,7.5913,7.6042,7.6041,7.6041,7.604,7.604,7.5503,7.5547,7.5593,7.5651,7.5685,7.5724,7.5767,7.5792,7.5841,7.5899,7.5905,7.5966,7.6005,7.6072,7.6097,7.6142,7.6128,7.6146,7.6151,7.6154,7.6156,7.6039,7.6151,7.6151,7.6151,7.6151,7.615,0,7.5612,7.5641,7.5694,7.5754,7.5798,7.5792,7.5837,7.5873,7.5928,7.5966,7.601,7.6074,7.6125,7.6153,7.6203,7.6233,7.6231,7.6245,7.6242,7.6246,7.6167,7.615,7.6246,7.6246,7.6246,7.6246,7.6246,7.6246,7.5674,7.5747,7.5762,7.585,7.5878,7.594,7.5966,7.6,7.6031,7.6103,7.6146,7.6165,7.6198,7.625,7.6295,7.6301,7.6318,7.6333,7.6338,7.6262,7.6252,7.6243,7.6227,7.6337,7.6338,7.6413,7.6414,7.6414]}]]